Dubai, UAE

1:50 PM GST on September 27, 2016 (GMT +0400)
Dubai

Weather History for 41194 - March, 2013

Change the Weather History Date:

Friday, March 29, 2013

  Actual Average Record
Temperature  
Mean Temperature 74 °F -  
Max Temperature 85 °F - - ()
Min Temperature 64 °F - - ()
Cooling Degree Days 10    
Growing Degree Days 24 (Base 50)    
Moisture  
Dew Point 50 °F    
Average Humidity 44    
Maximum Humidity 77    
Minimum Humidity 8    
Precipitation  
Precipitation 0.00 in - - ()
Sea Level Pressure  
Sea Level Pressure 29.93 in    
Wind  
Wind Speed 5 mph ()    
Max Wind Speed 12 mph    
Max Gust Speed -    
Visibility 5.7 miles    
Events      
T = Trace of Precipitation, MM = Missing Value Source: Averaged Metar Reports

Daily Weather History Graph

Daily Weather History Graph

Search for Another Location

Airport or City:

Trip Planner

Search our weather history database for the weather conditions in past years. The results will help you decide how hot, cold, wet, or windy it might be!

Date:

Astronomy

Mar. 29, 2013 Rise Set
Actual Time 6:13 AM GST 6:33 PM GST
Civil Twilight 5:50 AM GST 6:56 PM GST
Nautical Twilight 5:23 AM GST 7:23 PM GST
Astronomical Twilight 4:56 AM GST 7:50 PM GST
Moon 8:47 PM GST (3/29) 7:20 AM GST (3/29)
Length of Visible Light 13h 06m
Length of Day
12h 20m
Waning Gibbous, 95% of the Moon is Illuminated
Mar 29
Waning Gibbous
Apr 3
Last Quarter
Apr 10
New
Apr 18
First Quarter
Apr 25
Full

Hourly Weather History & Observations

Time (GST) Temp. Dew Point Humidity Pressure Visibility Wind Dir Wind Speed Gust Speed Precip Events Conditions
12:00 AM 73.4 °F 57.2 °F 57% 29.92 in - SSE 4.6 mph - N/A   Clear
1:00 AM 71 °F 58 °F 55% 29.92 in 6 mi SE 6.9 mph - -   Clear
1:00 AM 71.6 °F 57.2 °F 60% 29.92 in - SE 6.9 mph - N/A   Clear
2:00 AM 68.0 °F 57.2 °F 68% 29.89 in - SE 5.8 mph - N/A   Clear
3:00 AM 68.0 °F 57.2 °F 68% 29.89 in - Variable 2.3 mph - N/A   Clear
4:00 AM 69 °F 57 °F 57% 29.91 in 6 mi 3.5 mph - -   Clear
4:00 AM 68.0 °F 57.2 °F 68% 29.89 in - Variable 3.5 mph - N/A   Clear
5:00 AM 66.2 °F 57.2 °F 73% 29.89 in - South 3.5 mph - N/A   Clear
6:00 AM 66.2 °F 57.2 °F 73% 29.92 in - South 4.6 mph - N/A   Clear
7:00 AM 65 °F 57 °F 67% 29.95 in 5 mi 1.2 mph - -   Haze
7:00 AM 64.4 °F 57.2 °F 77% 29.95 in 5.0 mi Variable 1.2 mph - N/A   Unknown
8:00 AM 68.0 °F 59.0 °F 73% 29.98 in 5.0 mi Variable 1.2 mph - N/A   Unknown
9:00 AM 75.2 °F 53.6 °F 47% 29.98 in - Variable 1.2 mph - N/A   Clear
10:00 AM 78 °F 46 °F 21% 30.00 in 6 mi North 6.9 mph - -   Clear
10:00 AM 78.8 °F 46.4 °F 32% 29.98 in - North 6.9 mph - N/A   Clear
11:00 AM 80.6 °F 42.8 °F 26% 29.98 in - Variable 4.6 mph - N/A   Clear
12:00 PM 84.2 °F 24.8 °F 11% 29.98 in - Variable 5.8 mph - N/A   Clear
1:00 PM 84 °F 44 °F 15% 29.96 in 6 mi WNW 6.9 mph - -   Clear
1:00 PM 84.2 °F 44.6 °F 25% 29.95 in - WNW 6.9 mph - N/A   Clear
2:00 PM 84.2 °F 41.0 °F 22% 29.92 in - NNW 8.1 mph - N/A   Clear
3:00 PM 84.2 °F 30.2 °F 14% 29.89 in - NW 8.1 mph - N/A   Clear
4:00 PM 84 °F 32 °F 8% 29.89 in 6 mi NW 10.4 mph - -   Clear
4:00 PM 84.2 °F 33.8 °F 16% 29.89 in - NW 10.4 mph - N/A   Clear
5:00 PM 82.4 °F 41.0 °F 23% 29.86 in - NW 10.4 mph - N/A   Clear
6:00 PM 80.6 °F 42.8 °F 26% 29.89 in - NW 11.5 mph - N/A   Clear
7:00 PM 77 °F 55 °F 36% 29.91 in 6 mi NW 10.4 mph - -   Clear
7:00 PM 77.0 °F 55.4 °F 47% 29.89 in - NW 10.4 mph - N/A   Clear
8:00 PM 75.2 °F 55.4 °F 50% 29.92 in - NW 9.2 mph - N/A   Clear
9:00 PM 75.2 °F 57.2 °F 53% 29.92 in - NNW 6.9 mph - N/A   Clear
10:00 PM 75 °F 59 °F 47% 29.94 in 6 mi North 5.8 mph - -  
10:00 PM 75.2 °F 59.0 °F 57% 29.92 in - North 5.8 mph - N/A   Clear
11:00 PM 75.2 °F 55.4 °F 50% 29.92 in - NE 4.6 mph - N/A   Clear